User: anonymous   Login
Location: Mouss�
(47.9236°N, 1.2701°W)
Time: 13:00:53
(UTC+00:00)
Language:

Cosmos 1844 - Orbit

View from above orbital plane
View from above orbital plane
View from above satellite
View from above satellite

Ground track
Ground track

The orbit data is extracted from the following two-line orbital elements,

1 17973U 87041A   21138.08815887  .00000031  00000-0  41314-4 0  9998
2 17973  70.8976 137.7350 0029423 142.3048 218.0143 14.14125983755424
Epoch (UTC): 18 May 2021 02:06:56
Eccentricity: 0.0029423
inclination: 70.8976°
perigee height: 824 km
apogee height: 866 km
right ascension of ascending node: 137.7350°
argument of perigee: 142.3048°
revolutions per day: 14.14125983
mean anomaly at epoch: 218.0143°
orbit number at epoch: 75542

The dashed part of the orbit path shows where the satellite is in the earth's shadow,  

DLR